K5YNC Weather Reports


time (UTC)temp
F
wind
direction
speed
knots
gust
knots
rain 1hr
in
rain 24hr
in
rain mn
in
humidity
%
barometer
mb
20260906215616 99 167 5.2 7.0 0.00 0.00 0.00 40 1014.0
20260906215115 100 163 3.5 3.5 0.00 0.00 0.00 40 1014.0
20260906214614 100 163 5.2 7.0 0.00 0.00 0.00 40 1014.1
20260906214109 100 118 3.5 5.2 0.00 0.00 0.00 40 1014.1
20260906213609 100 135 4.3 6.1 0.00 0.00 0.00 40 1014.4
20260906213103 100 135 4.3 7.0 0.00 0.00 0.00 39 1014.3
20260906212601 100 166 4.3 6.1 0.00 0.00 0.00 39 1014.2
20260906212056 100 165 6.1 9.6 0.00 0.00 0.00 39 1014.3
20260906211556 101 179 7.8 8.7 0.00 0.00 0.00 39 1014.5
20260906211051 100 45 1.7 1.7 0.00 0.00 0.00 39 1014.5
20260906210546 100 131 3.5 6.1 0.00 0.00 0.00 39 1014.6
20260906210041 100 210 3.5 5.2 0.00 0.00 0.00 40 1014.9
20260906205537 101 174 6.1 7.8 0.00 0.00 0.00 38 1014.8
20260906205033 101 46 0.9 5.2 0.00 0.00 0.00 39 1014.9
20260906204532 101 159 4.3 5.2 0.00 0.00 0.00 39 1015.1
20260906204032 101 148 6.1 7.8 0.00 0.00 0.00 39 1015.1
20260906203532 101 161 1.7 2.6 0.00 0.00 0.00 38 1015.0
20260906203027 100 108 4.3 6.1 0.00 0.00 0.00 39 1015.2
20260906202524 100 195 1.7 2.6 0.00 0.00 0.00 40 1014.9
20260906202019 102 138 0.9 1.7 0.00 0.00 0.00 39 1015.2
20260906201518 100 171 2.6 2.6 0.00 0.00 0.00 40 1015.1
20260906201018 101 156 1.7 5.2 0.00 0.00 0.00 39 1015.2
20260906200514 100 34 0.9 0.9 0.00 0.00 0.00 39 1015.2
20260906200010 101 168 6.1 9.6 0.00 0.00 0.00 38 1015.4
20260906195505 98 153 0.9 0.9 0.00 0.00 0.00 40 1015.6
20260906195001 99 155 1.7 1.7 0.00 0.00 0.00 40 1015.6
20260906194457 101 244 2.6 3.5 0.00 0.00 0.00 40 1015.5
20260906193952 101 154 5.2 8.7 0.00 0.00 0.00 38 1015.7
20260906193447 100 137 3.5 5.2 0.00 0.00 0.00 40 1015.7
20260906192942 102 117 6.1 8.7 0.00 0.00 0.00 40 1015.9
20260906192437 100 91 2.6 3.5 0.00 0.00 0.00 40 1015.8
20260906191936 100 156 1.7 2.6 0.00 0.00 0.00 40 1016.0
20260906191431 98 81 1.7 1.7 0.00 0.00 0.00 41 1015.7
20260906190931 99 175 6.1 7.8 0.00 0.00 0.00 41 1016.1
20260906190429 100 182 4.3 5.2 0.00 0.00 0.00 41 1016.2
20260906185924 98 154 6.1 7.8 0.00 0.00 0.00 41 1016.0
20260906185424 97 152 3.5 6.1 0.00 0.00 0.00 41 1016.2
20260906184923 99 158 4.3 6.1 0.00 0.00 0.00 40 1016.2
20260906184418 100 161 7.0 9.6 0.00 0.00 0.00 39 1016.2
20260906183914 101 62 0.9 3.5 0.00 0.00 0.00 39 1016.4
20260906183410 100 158 1.7 1.7 0.00 0.00 0.00 38 1016.3
20260906182905 100 110 1.7 1.7 0.00 0.00 0.00 39 1016.4
20260906182400 98 160 1.7 3.5 0.00 0.00 0.00 42 1016.5
20260906181855 100 146 5.2 7.0 0.00 0.00 0.00 41 1016.7
20260906181352 98 193 0.9 1.7 0.00 0.00 0.00 42 1016.6
20260906180847 98 177 3.5 5.2 0.00 0.00 0.00 42 1016.9
20260906180342 98 51 2.6 3.5 0.00 0.00 0.00 40 1016.8
20260906175839 98 163 4.3 6.1 0.00 0.00 0.00 42 1016.8
20260906175334 99 176 1.7 2.6 0.00 0.00 0.00 40 1017.1
20260906174834 97 140 5.2 6.1 0.00 0.00 0.00 43 1017.2
20260906174333 97 142 4.3 7.0 0.00 0.00 0.00 43 1017.2
20260906173828 97 133 2.6 5.2 0.00 0.00 0.00 43 1017.3
20260906173324 99 167 7.0 7.8 0.00 0.00 0.00 41 1017.3
20260906172823 98 142 3.5 6.1 0.00 0.00 0.00 43 1017.3
20260906172319 98 186 3.5 3.5 0.00 0.00 0.00 41 1017.3
20260906171813 98 136 2.6 2.6 0.00 0.00 0.00 43 1017.4
20260906171308 97 156 2.6 2.6 0.00 0.00 0.00 43 1017.6
20260906170804 96 160 1.7 2.6 0.00 0.00 0.00 43 1017.8
20260906170301 97 102 3.5 5.2 0.00 0.00 0.00 43 1017.5
20260906165756 98 29 0.9 1.7 0.00 0.00 0.00 42 1017.8
20260906165256 97 127 0.9 1.7 0.00 0.00 0.00 43 1017.6
20260906164755 98 154 5.2 7.0 0.00 0.00 0.00 42 1017.7
20260906164250 96 135 0.9 0.9 0.00 0.00 0.00 44 1017.8
20260906163746 96 191 1.7 1.7 0.00 0.00 0.00 45 1017.8
20260906163242 97 37 0.9 2.6 0.00 0.00 0.00 42 1017.5
20260906162739 96 126 0.9 2.6 0.00 0.00 0.00 43 1018.0
20260906162233 95 173 3.5 5.2 0.00 0.00 0.00 45 1017.9
20260906161733 95 191 2.6 2.6 0.00 0.00 0.00 45 1017.9
20260906161232 96 170 3.5 3.5 0.00 0.00 0.00 45 1017.8
20260906160732 96 140 0.9 0.9 0.00 0.00 0.00 45 1017.8
20260906160231 96 133 0.0 0.9 0.00 0.00 0.00 45 1017.7
20260906155729 95 189 0.9 1.7 0.00 0.00 0.00 45 1017.6
20260906155224 94 194 0.0 0.9 0.00 0.00 0.00 47 1017.8
20260906154720 95 104 1.7 1.7 0.00 0.00 0.00 47 1017.9
20260906154215 95 150 2.6 3.5 0.00 0.00 0.00 48 1017.8
20260906153712 94 185 3.5 3.5 0.00 0.00 0.00 49 1017.8
20260906153208 95 156 0.9 0.9 0.00 0.00 0.00 50 1017.7
20260906152703 94 169 1.7 2.6 0.00 0.00 0.00 51 1017.7
20260906152156 94 165 1.7 2.6 0.00 0.00 0.00 51 1017.7
20260906151651 93 95 0.9 0.9 0.00 0.00 0.00 52 1017.7
20260906151147 92 353 2.6 2.6 0.00 0.00 0.00 55 1017.5
20260906150642 91 168 1.7 2.6 0.00 0.00 0.00 54 1017.8
20260906150137 91 116 1.7 1.7 0.00 0.00 0.00 55 1017.7
20260906145636 90 87 0.0 0.9 0.00 0.00 0.00 57 1017.6
20260906145131 91 163 1.7 1.7 0.00 0.00 0.00 58 1017.7
20260906144631 91 96 0.0 0.0 0.00 0.00 0.00 58 1017.7
20260906144126 90 159 0.0 0.0 0.00 0.00 0.00 58 1017.8
20260906143626 89 179 0.9 1.7 0.00 0.00 0.00 60 1017.8
20260906143124 89 172 0.0 0.0 0.00 0.00 0.00 60 1017.7
20260906142622 89 172 0.0 0.0 0.00 0.00 0.00 60 1017.7
20260906142118 0 0.0 0.0 0.00 0.00 0.00 1017.6
20260906141617 0 0.0 0.0 0.00 0.00 0.00 1017.6
20260906141112 86 138 1.7 2.6 0.00 0.00 0.00 66 1017.7
20260906140611 86 138 1.7 2.6 0.00 0.00 0.00 66 1017.7
20260906140106 85 144 1.7 2.6 0.00 0.00 0.00 68 1017.6
20260906135603 83 160 0.9 0.9 0.00 0.00 0.00 71 1017.5
20260906135059 83 160 0.9 0.9 0.00 0.00 0.00 71 1017.8
20260906134554 82 150 0.9 0.9 0.00 0.00 0.00 73 1017.7
20260906134054 80 164 0.0 0.0 0.00 0.00 0.00 75 1017.5
20260906133550 80 164 0.0 0.0 0.00 0.00 0.00 75 1017.3
20260906133045 80 166 0.0 0.0 0.00 0.00 0.00 77 1017.6
20260906132540 79 174 0.9 0.9 0.00 0.00 0.00 78 1017.4
20260906132036 78 171 0.0 0.0 0.00 0.00 0.00 78 1017.4
20260906131531 78 165 0.0 0.0 0.00 0.00 0.00 79 1017.3
20260906131026 77 171 0.0 0.0 0.00 0.00 0.00 80 1017.3
20260906130526 76 172 0.0 0.0 0.00 0.00 0.00 81 1017.3
20260906130021 76 175 0.0 0.0 0.00 0.00 0.00 81 1017.2
20260906125518 75 173 0.0 0.0 0.00 0.00 0.00 82 1017.2
20260906125013 75 170 0.0 0.0 0.00 0.00 0.00 82 1017.2
20260906124508 74 176 0.0 0.0 0.00 0.00 0.00 83 1017.3
20260906124004 0 0.0 0.0 0.00 0.00 0.00 1017.2
20260906123502 0 0.0 0.0 0.00 0.00 0.00 1017.1
20260906123003 0 0.0 0.0 0.00 0.00 0.00 1017.1
20260906122457 0 0.0 0.0 0.00 0.00 0.00 1016.9
20260906121954 74 190 0.0 0.0 0.00 0.00 0.00 84 1017.3
20260906121450 74 190 0.0 0.0 0.00 0.00 0.00 84 1017.1
20260906120946 74 190 0.0 0.0 0.00 0.00 0.00 83 1017.0
20260906120441 74 190 0.0 0.0 0.00 0.00 0.00 83 1016.9
20260906115937 74 185 0.0 0.0 0.00 0.00 0.00 83 1016.9
20260906115432 74 175 0.0 0.0 0.00 0.00 0.00 83 1016.8
20260906114932 74 174 0.0 0.0 0.00 0.00 0.00 83 1016.8
20260906114426 75 183 0.0 0.0 0.00 0.00 0.00 82 1016.9
20260906113922 75 176 0.0 0.0 0.00 0.00 0.00 82 1016.7
20260906113421 75 188 0.0 0.0 0.00 0.00 0.00 81 1016.6
20260906112917 75 188 0.0 0.0 0.00 0.00 0.00 81 1016.6
20260906112412 75 188 0.0 0.0 0.00 0.00 0.00 81 1016.6
20260906111908 75 183 0.0 0.0 0.00 0.00 0.00 81 1016.6
20260906111407 75 183 0.0 0.0 0.00 0.00 0.00 81 1016.8
20260906110902 75 181 0.0 0.0 0.00 0.00 0.00 81 1016.6
20260906110357 75 176 0.0 0.0 0.00 0.00 0.00 81 1016.6
20260906105856 75 171 0.0 0.0 0.00 0.00 0.00 81 1016.5
20260906105352 76 167 0.0 0.0 0.00 0.00 0.00 80 1016.4
20260906104848 77 168 0.0 0.0 0.00 0.00 0.00 79 1016.2
20260906104346 77 176 0.0 0.0 0.00 0.00 0.00 79 1016.4
20260906103845 77 180 0.0 0.0 0.00 0.00 0.00 79 1016.2
20260906103343 78 192 0.0 0.0 0.00 0.00 0.00 78 1016.2
20260906102840 78 182 0.0 0.0 0.00 0.00 0.00 78 1016.0
20260906102338 78 181 0.0 0.0 0.00 0.00 0.00 78 1015.9
20260906101834 78 189 0.0 0.0 0.00 0.00 0.00 78 1015.9
20260906101329 78 178 0.0 0.0 0.00 0.00 0.00 78 1016.0
20260906100825 78 169 0.0 0.0 0.00 0.00 0.00 77 1016.1
20260906100323 78 163 0.0 0.0 0.00 0.00 0.00 76 1015.9
20260906095819 79 182 0.0 0.0 0.00 0.00 0.00 75 1015.9
20260906095314 79 181 0.0 0.9 0.00 0.00 0.00 75 1015.9
20260906094813 79 175 0.9 0.9 0.00 0.00 0.00 75 1015.8
20260906094308 79 192 0.9 0.9 0.00 0.00 0.00 75 1016.0
20260906093805 79 183 0.0 0.0 0.00 0.00 0.00 75 1015.8
20260906093301 79 179 0.9 0.9 0.00 0.00 0.00 75 1015.7
20260906092756 79 201 1.7 1.7 0.00 0.00 0.00 75 1015.7
20260906092256 79 176 0.0 0.0 0.00 0.00 0.00 74 1015.8
20260906091751 79 170 0.9 0.9 0.00 0.00 0.00 75 1016.0
20260906091247 78 179 0.0 0.0 0.00 0.00 0.00 76 1015.9
20260906090744 78 184 0.0 0.0 0.00 0.00 0.00 76 1015.8
20260906090243 79 175 0.0 0.0 0.00 0.00 0.00 75 1016.0
20260906085742 79 166 0.0 0.0 0.00 0.00 0.00 75 1015.8
20260906085241 80 179 0.0 0.0 0.00 0.00 0.00 74 1015.9
20260906084736 80 185 0.0 0.0 0.00 0.00 0.00 74 1015.8
20260906084236 80 163 0.9 0.9 0.00 0.00 0.00 73 1015.7
20260906083731 80 197 0.9 0.9 0.00 0.00 0.00 73 1015.5
20260906083226 80 172 0.9 0.9 0.00 0.00 0.00 73 1015.6
20260906082722 80 190 1.7 1.7 0.00 0.00 0.00 73 1015.6
20260906082217 80 173 1.7 1.7 0.00 0.00 0.00 72 1015.5
20260906081713 80 186 0.9 1.7 0.00 0.00 0.00 72 1015.6
20260906081207 80 168 0.9 0.9 0.00 0.00 0.00 72 1015.7
20260906080704 80 153 1.7 2.6 0.00 0.00 0.00 72 1015.4
20260906080200 81 199 2.6 2.6 0.00 0.00 0.00 71 1015.5
20260906075659 81 214 0.9 1.7 0.00 0.00 0.00 71 1015.5
20260906075148 81 186 2.6 2.6 0.00 0.00 0.00 71 1015.7
20260906074643 81 177 1.7 2.6 0.00 0.00 0.00 71 1015.5
20260906074142 81 168 1.7 2.6 0.00 0.00 0.00 70 1015.4
20260906073637 81 191 1.7 1.7 0.00 0.00 0.00 70 1015.5
20260906073133 81 166 2.6 2.6 0.00 0.00 0.00 70 1015.4
20260906072628 81 140 1.7 1.7 0.00 0.00 0.00 70 1015.4
20260906072125 81 186 1.7 1.7 0.00 0.00 0.00 69 1015.4
20260906071621 82 196 1.7 1.7 0.00 0.00 0.00 69 1015.5
20260906071121 82 189 2.6 2.6 0.00 0.00 0.00 68 1015.7
20260906070617 82 183 0.9 1.7 0.00 0.00 0.00 68 1015.6
20260906070113 82 173 1.7 1.7 0.00 0.00 0.00 67 1015.6
20260906065612 83 169 2.6 2.6 0.00 0.00 0.00 67 1015.6
20260906065108 83 174 1.7 2.6 0.00 0.00 0.00 67 1015.7
20260906064603 83 177 1.7 2.6 0.00 0.00 0.00 67 1015.7
20260906064058 82 175 3.5 6.1 0.00 0.00 0.00 67 1016.0
20260906063553 82 178 3.5 3.5 0.00 0.00 0.00 68 1015.8
20260906063044 82 202 0.9 1.7 0.00 0.00 0.00 68 1015.8
20260906062539 82 213 2.6 2.6 0.00 0.00 0.00 68 1015.9
20260906062038 82 187 0.9 1.7 0.00 0.00 0.00 68 1015.9
20260906061535 82 225 1.7 2.6 0.00 0.00 0.00 67 1015.7
20260906061033 82 177 1.7 1.7 0.00 0.00 0.00 66 1015.9
20260906060530 82 179 2.6 2.6 0.00 0.00 0.00 66 1016.0
20260906060027 83 168 1.7 1.7 0.00 0.00 0.00 66 1015.9
20260906055524 82 178 0.9 1.7 0.00 0.00 0.00 66 1015.8
20260906055019 82 198 1.7 1.7 0.00 0.00 0.00 66 1015.9
20260906054519 83 185 1.7 1.7 0.00 0.00 0.00 65 1015.7
20260906054014 83 153 1.7 1.7 0.00 0.00 0.00 65 1015.8
20260906053510 83 154 1.7 2.6 0.00 0.00 0.00 65 1015.8
20260906053006 84 204 0.9 0.9 0.00 0.00 0.00 63 1015.7
20260906052501 84 182 0.9 1.7 0.00 0.00 0.00 63 1015.8
20260906051958 84 186 0.9 1.7 0.00 0.00 0.00 63 1015.8
20260906051453 84 172 0.9 0.9 0.00 0.00 0.00 62 1015.7
20260906050949 85 163 1.7 2.6 0.00 0.00 0.00 62 1015.9
20260906050448 85 208 0.9 1.7 0.00 0.00 0.00 61 1015.8
20260906045947 85 167 0.9 1.7 0.00 0.00 0.00 61 1016.1
20260906045446 85 188 0.9 1.7 0.00 0.00 0.00 60 1015.8
20260906044942 86 187 2.6 3.5 0.00 0.00 0.00 60 1015.9
20260906044437 86 190 1.7 1.7 0.00 0.00 0.00 59 1016.0
20260906043933 86 206 3.5 5.2 0.00 0.00 0.00 58 1016.0
20260906043429 86 182 3.5 6.1 0.00 0.00 0.00 58 1016.1
20260906042924 86 162 6.1 7.8 0.00 0.00 0.00 58 1016.0
20260906042423 87 169 4.3 5.2 0.00 0.00 0.00 56 1015.8
20260906041918 86 120 4.3 6.1 0.00 0.00 0.00 56 1015.9
20260906041415 86 144 3.5 3.5 0.00 0.00 0.00 56 1016.0
20260906040914 84 163 2.6 3.5 0.00 0.00 0.00 58 1016.1
20260906040410 82 180 0.9 0.9 0.00 0.00 0.00 61 1016.1
20260906035905 82 172 0.9 0.9 0.00 0.00 0.00 61 1015.8
20260906035400 82 179 0.0 0.0 0.00 0.00 0.00 60 1015.8
20260906034856 81 182 0.0 0.0 0.00 0.00 0.00 61 1015.8
20260906034355 82 190 0.0 0.0 0.00 0.00 0.00 60 1015.9
20260906033852 82 180 0.0 0.0 0.00 0.00 0.00 60 1015.8
20260906033351 82 179 0.0 0.0 0.00 0.00 0.00 59 1015.9
20260906032847 83 174 0.0 0.0 0.00 0.00 0.00 59 1015.9
20260906032343 83 178 0.0 0.0 0.00 0.00 0.00 59 1015.8
20260906031838 83 179 0.0 0.0 0.00 0.00 0.00 58 1015.6
20260906031333 83 181 0.0 0.0 0.00 0.00 0.00 58 1015.5
20260906030833 84 179 0.0 0.0 0.00 0.00 0.00 58 1015.6
20260906030329 84 172 0.0 0.0 0.00 0.00 0.00 58 1015.7
20260906025829 84 172 0.0 0.0 0.00 0.00 0.00 57 1015.3
20260906025323 84 178 0.0 0.0 0.00 0.00 0.00 56 1015.4
20260906024822 85 174 0.0 0.0 0.00 0.00 0.00 55 1015.7
20260906024321 86 175 0.0 0.0 0.00 0.00 0.00 55 1015.4
20260906023817 86 203 0.0 0.9 0.00 0.00 0.00 54 1015.4
20260906023312 86 184 0.0 0.0 0.00 0.00 0.00 54 1015.5
20260906022808 86 185 0.0 0.0 0.00 0.00 0.00 54 1015.4
20260906022306 86 181 0.0 0.0 0.00 0.00 0.00 53 1015.1
20260906021759 87 181 0.0 0.0 0.00 0.00 0.00 53 1015.1
20260906021257 87 185 0.0 0.0 0.00 0.00 0.00 52 1015.2
20260906020752 87 175 0.0 0.9 0.00 0.00 0.00 52 1015.1
20260906020252 87 189 0.0 0.9 0.00 0.00 0.00 52 1015.0
20260906015752 87 175 1.7 1.7 0.00 0.00 0.00 52 1014.8
20260906015250 88 192 0.9 0.9 0.00 0.00 0.00 52 1014.6
20260906014745 88 212 0.9 0.9 0.00 0.00 0.00 51 1014.8
20260906014241 88 176 0.9 0.9 0.00 0.00 0.00 51 1014.8
20260906013737 89 182 0.0 0.0 0.00 0.00 0.00 50 1014.6
20260906013237 89 171 0.9 0.9 0.00 0.00 0.00 50 1014.3
20260906012732 89 181 0.9 0.9 0.00 0.00 0.00 49 1014.4
20260906012227 90 178 0.9 0.9 0.00 0.00 0.00 49 1014.4
20260906011723 90 170 0.0 0.9 0.00 0.00 0.00 49 1014.2
20260906011217 90 157 0.9 0.9 0.00 0.00 0.00 48 1014.3
20260906010713 91 172 0.0 0.0 0.00 0.00 0.00 48 1014.4
20260906010209 91 164 0.9 0.9 0.00 0.00 0.00 47 1014.2
20260906005708 92 158 0.9 0.9 0.00 0.00 0.00 46 1014.1
20260906005203 92 157 0.9 0.9 0.00 0.00 0.00 46 1013.9
20260906004702 93 160 0.9 1.7 0.00 0.00 0.00 45 1014.1
20260906004156 93 154 2.6 2.6 0.00 0.00 0.00 43 1014.1
20260906003651 93 143 0.9 1.7 0.00 0.00 0.00 43 1014.1
20260906003147 94 176 0.0 0.9 0.00 0.00 0.00 43 1014.2
20260906002642 94 170 0.0 0.9 0.00 0.00 0.00 43 1013.9
20260906002136 95 165 0.9 1.7 0.00 0.00 0.00 42 1014.0
20260906001632 95 152 1.7 2.6 0.00 0.00 0.00 41 1014.2
20260906001132 95 159 1.7 1.7 0.00 0.00 0.00 42 1013.9
20260906000627 95 177 1.7 1.7 0.00 0.00 0.00 41 1014.0
20260906000123 96 163 5.2 6.1 0.00 0.00 0.00 40 1014.1
20260905235621 96 138 2.6 2.6 0.00 0.00 0.00 40 1014.0
20260905235117 96 155 1.7 2.6 0.00 0.00 0.00 40 1013.9
20260905234612 96 182 1.7 2.6 0.00 0.00 0.00 40 1014.1
20260905234108 97 161 3.5 3.5 0.00 0.00 0.00 40 1014.0
20260905233608 97 133 0.9 2.6 0.00 0.00 0.00 40 1013.9
20260905233102 97 153 0.0 0.9 0.00 0.00 0.00 39 1013.8
20260905232557 97 94 3.5 5.2 0.00 0.00 0.00 39 1013.8
20260905232053 97 154 1.7 2.6 0.00 0.00 0.00 38 1013.8
20260905231548 97 168 1.7 1.7 0.00 0.00 0.00 38 1013.7
20260905231044 98 235 3.5 6.1 0.00 0.00 0.00 38 1013.8
20260905230544 98 186 1.7 1.7 0.00 0.00 0.00 39 1013.8
20260905230043 97 188 0.9 1.7 0.00 0.00 0.00 38 1013.8
20260905225537 98 138 3.5 5.2 0.00 0.00 0.00 39 1013.7
20260905225032 97 165 1.7 2.6 0.00 0.00 0.00 39 1013.5
20260905224526 98 198 3.5 3.5 0.00 0.00 0.00 39 1013.8
20260905224026 98 184 4.3 5.2 0.00 0.00 0.00 38 1013.8
20260905223524 98 167 2.6 3.5 0.00 0.00 0.00 39 1014.0
20260905223020 98 164 2.6 3.5 0.00 0.00 0.00 39 1013.9
20260905222520 98 145 4.3 6.1 0.00 0.00 0.00 40 1013.9
20260905222015 98 172 3.5 3.5 0.00 0.00 0.00 39 1014.1
20260905221511 99 174 2.6 2.6 0.00 0.00 0.00 39 1014.0
20260905221007 99 144 7.8 9.6 0.00 0.00 0.00 38 1013.9
20260905220503 98 157 5.2 7.8 0.00 0.00 0.00 39 1013.8
20260905220002 99 160 2.6 2.6 0.00 0.00 0.00 39 1013.8